Location: Sungai Bunut
(2.6333°N, 113.7333°E)
Time: 21:09:49
(UTC+00:00)

Cosmos 1697 Rocket - Pass Details

Date: 30 May 2022
Orbit: 833 x 843 km, 71.0° (Epoch: 03 July)

Event Time Altitude Azimuth Distance (km) Brightness Sun altitude
Rises 10:52:54 0° 200° (SSW) 3,389 5.8 -6.0°
Reaches altitude 10° 10:55:21 10° 202° (SSW) 2,454 5.1 -6.6°
Maximum altitude 11:00:57 69° 285° (WNW) 895 3.1 -7.9°
Drops below altitude 10° 11:06:33 10° 8° (N) 2,450 5.3 -9.2°
Sets 11:09:00 0° 11° (N) 3,383 6.0 -9.7°
